THORAD DELTA 1 DEB, 42625

Orbit data source: Space-Track

THORAD DELTA 1 DEB, 42625 is space debris in SSO originally from a launch on Fri, 15 Nov 1974 UTC launched from the Air Force Western Test Range (AFWTR). Debris objects in space refer to the collection of defunct objects orbiting the Earth. Examples of debris include non-operational satellites, rocket bodies, and fragments generated from explosions, collisions, or faulty payload assembly.

Loading next visibility...
Identifier
42625, 1974-089GS
Orbit
SSO
Country
Flag of USUS
Related business
Manufacturer
Unknown
Mission
Spacecraft
Bus & Motor
Unknown
Mass
Unknown
Launch date (UTC)
1974-11-15 (51 years ago)
Launch vehicle
Unknown
Launch site
Air Force Western Test Range (AFWTR)
Object type
Payload
Rocket body
Debris
Shape & HBR
Unknown shape, 0.1 m
Radar Cross Section
Small (<0.1 m²)

Expand to show TLE details & history
Last TLE update: 3 days ago

TLE from 3 days ago
0 THORAD DELTA 1 DEB
1 42625U 74089GS  25306.88260106  .00000143  00000-0  13352-2 0  9998
2 42625 102.0068 279.2249 0003075 296.1694  92.3253 12.44190163543844
Epoch: 2025-11-02T21:10Z
TLE epoch observation values (Epoch: 2025-11-02T21:10:56.731Z)
Latitude
27.89153°
Longitude
-87.33505°
Altitude
1,492.107 km
Speed
7.12 km/s
True Right ascension
18h 11m 10s
True Declination
27° 45' 46"
Sunlit
Object was in daylight at epoch
Visualization orbit readout
Latitude
Unknown
Longitude
Unknown
Altitude
Unknown
Speed
Unknown
Apparent Right ascension
Unknown
Apparent Declination
Unknown
Sunlit
N/A
Visualization observer readout
Local Sidereal Time
16:15:29
Azimuth
Unknown
Elevation
Unknown
Doppler factor
Unknown
Orbital elements
Apogee altitude
1,488.878 km
Perigee altitude
1,484.042 km
Semi-major axis
7,864.597 km
Eccentricity
0.00031
Inclination
102.0068°
RAAN
279.2249°
Arg. of periapsis
296.1694°
True anomaly
92.36051°
Mean anomaly
92.3253°
Eccentric anomaly
92.3429°
Mean motion
3.11192 °/min
Orbital period
115.68 mins
BSTAR
0.0013352
Loading maneuver chart data...
Computing Atmospheric mass density...

Documentation

Showing up to 5 results
|